Location: Boone Canyon
(38.3180°N, 119.2504°W)
Time: 18:05:17
(UTC+00:00)

Cosmos 1666 - Pass Details

Date: 18 September 2020
Orbit: 496 x 521 km, 82.5° (Epoch: 19 October)

Event Time Altitude Azimuth Distance (km) Brightness Sun altitude
Rises 12:49:58 0° 347° (NNW) 2,640 6.3 -10.9°
Reaches altitude 10° 12:52:09 10° 342° (NNW) 1,744 5.3 -10.5°
Maximum altitude 12:55:52 52° 266° (W) 642 2.8 -9.8°
Drops below altitude 10° 12:59:31 10° 190° (S) 1,716 5.2 -9.1°
Sets 13:01:39 0° 185° (S) 2,591 6.1 -8.7°
